Погода в Глухарях

Россия / Амурская область     51°44′43″N   128°04′05″E
темп.,
°C
ветер,
м/с
пор.,
м/с
влажн.,
%
обл.,
%
осадки,
мм/ч
давл.,
гПа
погр.,
м
15 мая, сб
сб1500:00+6з269830 0.0 1000158
03:00+5з499633 0.0 999337
06:00+5з5129439 0.0 997594
09:00+5з6996100 0.2 9961022
12:00+6з51295100 3.6 9951241
15:00+7зсз61388100 5.3 9961160
18:00+7сз61290100 0.7 9971194
21:00+8зсз6138750 0.9 999842
16 мая, вс
вс1600:00+8зсз6138499 0.0 1000640
03:00+6зсз5128931 0.1 1000381
06:00+6зсз411873 0.0 1001323
09:00+11зсз47651 0.0 1001663
12:00+15зсз57464 0.0 9991572
15:00+18зсз46365 0.0 9982260
18:00+17зсз24373 0.0 998897
21:00+12юз22465 0.0 99811
17 мая, пн
пн1700:00+10ююз345113 0.0 99853
03:00+9ююз310615 0.0 996176
06:00+9з6146642 0.0 997510
09:00+14зсз6105587 0.0 9981234
12:00+16зсз7102789 0.0 9991857
15:00+16зсз6828100 0.0 9992019
18:00+14ссз3637100 0.0 9991067
21:00+12зсз2346100 0.0 100068
18 мая, вт
вт1800:00+10св12597 0.0 100049
03:00+7вюв116524 0.0 100011
06:00+8всв256889 0.0 999173
09:00+10вюв256368 0.0 998516
12:00+16юз354433 0.0 9961742
15:00+16зсз674522 0.1 9951685
18:00+14сз693792 0.0 9971756
21:00+7сз614570 0.0 1001855
19 мая, ср
ср1900:00+5сз411690 0.0 1003635
03:00+4зсз39750 0.0 1004355
06:00+5з38690 0.0 1005260
09:00+11зюз36425 0.0 1006947
12:00+16з482396 0.0 10032730
15:00+18зюз4823100 0.0 10012863
18:00+17ю2435100 0.0 999216
21:00+12ссв5954100 0.0 998289